Regional Weather Roundup
Issued by NWS San Diego, CA

Home | Current Version | Previous Version | Text Only | Print | Product List | Glossary On
Versions: 1 2 3 4 5 6 7 8 9 10 11 12 13 14 15 16 17 18 19 20 21 22 23 24 25 26 27 28 29 30 31 32 33 34 35 36 37 38 39 40 41 42 43 44 45 46 47 48 49 50
000
ASUS46 KSGX 230403
RWRSGX

SAN DIEGO HOURLY WEATHER ROUNDUP
NATIONAL WEATHER SERVICE SAN DIEGO CA
900 PM PDT WED OCT 22 2014

NOTE: "FAIR" INDICATES FEW OR NO CLOUDS BELOW 12,000 FEET WITH NO
SIGNIFICANT WEATHER AND/OR OBSTRUCTIONS TO VISIBILITY.

CAZ042-043-060-061-PZZ750-775-230500-

GREATER SAN DIEGO AREA

CITY           SKY/WX    TMP DP  RH WIND       PRES   REMARKS
LINDBERGH FLD  CLEAR     70  62  76 CALM      29.95R
POINT LOMA       N/A     65  62  90 NW10        N/A
NATIONAL CITY    N/A     70  65  83 CALM      29.94R
CHULA VISTA      N/A     67  64  90 CALM      29.88R
IMPERIAL BEACH PTCLDY    62  60  93 CALM      29.95R
BROWN FIELD    CLEAR     66  61  84 CALM      29.95R
MIRAMAR MCAS   CLEAR     66  60  81 NW5       29.95R
MONTGOMERY FLD CLEAR     67  62  84 N5        29.95R

$$

NORTH SAN DIEGO COUNTY

CITY           SKY/WX    TMP DP  RH WIND       PRES   REMARKS
CAMP PENDLETON PTCLDY    64  56  75 CALM      29.95R
OCEANSIDE AP   CLEAR     60  56  86 CALM      29.94R
OCEANSIDE HBR    N/A     67  65  91 NW2       29.97R
VISTA            N/A     63  58  84 CALM      29.93R
CARLSBAD       CLEAR     67  62  84 CALM      29.94R
DEL MAR          N/A     65  63  94 CALM      29.97R
LA JOLLA SCRIP   N/A     67  65  93 CALM      29.92R
FALLBROOK        N/A     65  65  99 CALM      29.94R
ESCONDIDO        N/A     70  60  71 CALM      29.97R
SAN MARCOS       N/A     67  60  79 CALM      29.93R
POWAY            N/A     63  57  79 CALM      29.96R

$$

EAST SAN DIEGO COUNTY

CITY           SKY/WX    TMP DP  RH WIND       PRES   REMARKS
RAMONA         CLEAR     59  46  62 CALM      29.98R
SANTEE LAKES     N/A     64  55  71 CALM      29.95R
LA MESA          N/A     69  63  82 CALM      29.88R
JAMUL            N/A     64  57  79 CALM      29.93S
DESCANSO N       N/A     62  31  30 E2        29.87R
MT. LAGUNA OBS   N/A     62  19  18 SE3       29.77R
CAMPO            N/A     60  35  39 NE6       30.01R

$$

ORANGE COUNTY AND THE LOS ANGELES BASIN

CITY           SKY/WX    TMP DP  RH WIND       PRES   REMARKS
JOHN WAYNE AP  PTCLDY    72  64  76 CALM      29.94R
LAKE FOREST FR   N/A     67  52  59 CALM      29.85R
SANTA ANA        N/A     68  62  80 CALM      29.89R
HUNTINGTON BCH   N/A     65  62  88 CALM      29.96R
LOS ALAMITOS   PTCLDY    68  60  75 NW5       29.94R
FULLERTON      PTCLDY    71  57  61 CALM      29.93R
LONG BEACH     PTCLDY    69  61  75 NW6       29.94R
L.A. AP        PTCLDY    68  64  87 W6        29.94S
L.A. DOWNTOWN  PTCLDY    68  62  81 CALM      29.94R

$$

THE INLAND EMPIRE

CITY           SKY/WX    TMP DP  RH WIND       PRES   REMARKS
CORONA         PTCLDY    64  52  65 CALM      29.96R
CHINO          PTCLDY    68  58  70 NW3       29.96R
ONTARIO        MOCLDY    72  58  61 W5        29.96R
RIVERSIDE AP   PTCLDY    73  51  46 CALM      29.96R
RIV CYN CREST    N/A     72  59  64 CALM      29.94R
MORENO VALLEY    N/A     68  53  57 CALM      29.15R
MARCH ARB      PTCLDY    66  48  52 CALM      29.99R
PERRIS           N/A     72  50  45 CALM      29.96R
MENIFEE          N/A     71  49  45 CALM      30.03R
HEMET EAST       N/A     70  27  20 CALM      29.95S
FRENCH VALLEY  FAIR      66  43  42 CALM      29.98R
TEMECULA         N/A     68  46  45 CALM      29.94R

$$

SAN BERNARDINO AND RIVERSIDE COUNTY MOUNTAINS

CITY           SKY/WX    TMP DP  RH WIND       PRES   REMARKS
BIG BEAR AP    PTCLDY    43  21  42 CALM      30.28R
PINE COVE        N/A     59  21  23 CALM      29.89R

$$

SOUTHERN DESERT INCLUDING THE COACHELLA VALLEY

CITY           SKY/WX    TMP DP  RH WIND       PRES   REMARKS
PALM SPRINGS   CLEAR     78  30  17 N9        29.94R
THOUSAND PALMS   N/A     76  40  27 NW1       29.88R
PALM DESERT      N/A     76  50  40 CALM        N/A
THERMAL        CLEAR     67  48  50 NW3       29.87R
BLYTHE         CLEAR     81  45  28 NW5       29.90R
IMPERIAL AP    CLEAR     79  52  38 N3        29.87R
EL CENTRO NAS  PTCLDY    77  47  34 N5        29.87S
YUMA AZ        PTCLDY    82  49  31 W5        29.89R
MEXICALI       CLEAR     81  43  26 W7        29.88

$$

UPPER DESERT

CITY           SKY/WX    TMP DP  RH WIND       PRES   REMARKS
VICTORVILLE AP MOCLDY    63  23  22 SW5       30.06R
HESPERIA         N/A     64  32  30 NW2       30.12R
APPLE VALLEY     N/A     63  32  31 CALM      30.12R
PALMDALE       PTCLDY    64  34  32 S10       30.04S
LANCASTER      PTCLDY    58  29  33 W8        30.03S
EDWARDS AFB    MOCLDY    62  27  26 S3        30.01R
DAGGETT        MOCLDY    68  26  20 NW5       30.00S
29 PALMS N     PTCLDY    69  33  26 SW9       30.08R
NEEDLES        PTCLDY    80  41  24 W7        29.94R

$$

REGIONAL REPORTS

CITY           SKY/WX    TMP DP  RH WIND       PRES   REMARKS
SANTA BARBARA  PTCLDY    64  57  78 CALM      29.92R
SANDBERG       CLEAR     69  26  20 S3        30.14S
MT. WILSON       N/A     61  21  21 MISG        N/A
LAS VEGAS NV   MOCLDY    73  31  21 W5        29.98S
PHOENIX AZ     CLEAR     78  55  44 SW5       29.92S
TIJUANA        CLEAR     64  59  82 CALM      29.96S

$$

OFFSHORE ISLANDS

CITY           SKY/WX    TMP DP  RH WIND       PRES   REMARKS
CATALINA ARPT  CLEAR     67  44  43 NW8       29.99R
SAN NICOLAS IS CLEAR    N/A N/A N/A W12       29.95S

$$

MARINE AND OFFSHORE BUOY REPORTS

STATION/POSITION SKY/WX   TEMP    WIND        PRES    SWELL
                          AIR SEA DIR/SP/G            HT/PER/DIR
                          (F)     (DEG/KT/KT) (MB)    (FT/S/D)
TANNER BANKS               67 68  330/ 12/ 16 1014.2R   8/320/12
S CLEMENTE BASIN           69 71  320/  4/  6 1013.8R   7/300/14
SAN NICOLAS IS.               67                N/A     7/300/13
SO. S. ROSA ISLA           66 67  320/ 16/ 17 1013.1R   8/13
W. S. BARBARA CH           65 65  320/ 19/ 23 1012.5R   8/320/13
M. S. BARBARA CH           67 69  220/ 10/ 10 1012.8
S. MONICA BASIN            69 72  270/  6/  8 1013.0R   5/250/13
S PEDRO CHANNEL               71                N/A     3/280/13
DANA POINT                    70                N/A     2/270/14
CMP PENDLETON NS              71                N/A     2/210/18
OCEANSIDE OFFSHR              71                N/A     2/260/13
TORREY PINES OTR              72                N/A     3/270/14
LA JOLLA 1                 68 71   CALM  /  1 1013.9R
MISSION BAY BUOY              72                N/A     3/270/14
SAN DIEGO BAY                 74              1014.3R
POINT LOMA SOUTH              72                N/A     5/280/13

$$




USA.gov is the U.S. government's official web portal to all federal, state and local government web resources and services.